• In Czech Republic
  • List of Countries
  • For 7 days
  • Water Temperature
  • Satellite Maps
  • Weather Map
  • Weather Widgets
  • user-avatar
    Login

    Hourly Weather Saint-Nicolas

    Today, 22 October, Sunday

    Time Temperature Precipitation Wind Pressure Humidity
    00:00 +9°C° 0 mm 7 mps 745 mmHg 75%
    01:00 +8°C° 0.1 mm 7 mps 744 mmHg 75%
    02:00 +7°C° 0.1 mm 8 mps 744 mmHg 76%
    03:00 +7°C° 0.1 mm 8 mps 744 mmHg 77%
    04:00 +7°C° 0.9 mm 8 mps 744 mmHg 80%
    05:00 +7°C° 0.9 mm 8 mps 744 mmHg 83%
    06:00 +7°C° 0.9 mm 8 mps 744 mmHg 86%
    07:00 +7°C° 1 mm 8 mps 744 mmHg 87%
    08:00 +8°C° 1 mm 7 mps 744 mmHg 87%
    09:00 +8°C° 1 mm 6 mps 745 mmHg 88%
    10:00 +9°C° 0.2 mm 6 mps 745 mmHg 83%
    11:00 +9°C° 0.2 mm 6 mps 745 mmHg 79%
    12:00 +10°C° 0.2 mm 6 mps 746 mmHg 75%
    13:00 +10°C° 0.1 mm 6 mps 746 mmHg 74%
    14:00 +10°C° 0.1 mm 6 mps 746 mmHg 74%
    15:00 +10°C° 0.1 mm 5 mps 746 mmHg 73%
    16:00 +9°C° 0 mm 5 mps 746 mmHg 76%
    17:00 +8°C° 0 mm 4 mps 747 mmHg 78%
    18:00 +7°C° 0 mm 4 mps 747 mmHg 81%
    19:00 +7°C° 0 mm 4 mps 747 mmHg 81%
    20:00 +7°C° 0 mm 4 mps 748 mmHg 81%
    21:00 +7°C° 0 mm 4 mps 748 mmHg 81%
    22:00 +7°C° 0 mm 4 mps 748 mmHg 82%
    23:00 +7°C° 0 mm 4 mps 749 mmHg 84%

    Tomorrow, 23 October, Monday

    Time Temperature Precipitation Wind Pressure Humidity
    00:00 +7°C° 0 mm 4 mps 749 mmHg 85%
    01:00 +7°C° 0 mm 4 mps 749 mmHg 87%
    02:00 +7°C° 0 mm 4 mps 749 mmHg 89%
    03:00 +6°C° 0 mm 4 mps 749 mmHg 90%
    04:00 +7°C° 0 mm 4 mps 750 mmHg 90%
    05:00 +7°C° 0 mm 4 mps 750 mmHg 91%
    06:00 +7°C° 0 mm 5 mps 750 mmHg 91%
    07:00 +8°C° 0 mm 5 mps 750 mmHg 88%
    08:00 +9°C° 0 mm 5 mps 750 mmHg 86%
    09:00 +9°C° 0 mm 5 mps 751 mmHg 84%
    10:00 +10°C° 0.1 mm 5 mps 751 mmHg 83%
    11:00 +10°C° 0.1 mm 5 mps 751 mmHg 83%
    12:00 +12°C° 0.1 mm 4 mps 751 mmHg 83%
    13:00 +12°C° 0.8 mm 4 mps 751 mmHg 86%
    14:00 +11°C° 0.8 mm 4 mps 751 mmHg 89%
    15:00 +11°C° 0.8 mm 4 mps 751 mmHg 92%
    16:00 +11°C° 0.8 mm 4 mps 751 mmHg 93%
    17:00 +11°C° 0.8 mm 4 mps 751 mmHg 94%
    18:00 +11°C° 0.8 mm 4 mps 751 mmHg 94%
    19:00 +11°C° 0.3 mm 4 mps 751 mmHg 95%
    20:00 +11°C° 0.3 mm 4 mps 751 mmHg 95%
    21:00 +12°C° 0.3 mm 4 mps 751 mmHg 95%
    22:00 +12°C° 0.1 mm 4 mps 751 mmHg 96%
    23:00 +12°C° 0.1 mm 4 mps 751 mmHg 96%

    Day after tomorrow, 24 October, Tuesday

    Time Temperature Precipitation Wind Pressure Humidity
    00:00 +12°C° 0.1 mm 4 mps 751 mmHg 96%
    01:00 +12°C° 0.1 mm 3 mps 751 mmHg 96%
    02:00 +12°C° 0.1 mm 3 mps 751 mmHg 96%
    03:00 +12°C° 0.1 mm 3 mps 751 mmHg 96%
    04:00 +12°C° 0.1 mm 3 mps 751 mmHg 96%
    05:00 +13°C° 0.1 mm 3 mps 751 mmHg 96%
    06:00 +13°C° 0.1 mm 3 mps 752 mmHg 97%
    07:00 +13°C° 0.1 mm 3 mps 752 mmHg 96%
    08:00 +14°C° 0.1 mm 3 mps 752 mmHg 95%
    09:00 +14°C° 0.1 mm 4 mps 752 mmHg 94%
    10:00 +14°C° 0.2 mm 4 mps 752 mmHg 93%
    11:00 +15°C° 0.2 mm 4 mps 752 mmHg 93%
    12:00 +15°C° 0.2 mm 4 mps 752 mmHg 92%
    13:00 +15°C° 0.1 mm 4 mps 752 mmHg 92%
    14:00 +15°C° 0.1 mm 4 mps 752 mmHg 93%
    15:00 +15°C° 0.1 mm 4 mps 752 mmHg 93%
    16:00 +14°C° 0 mm 4 mps 752 mmHg 94%
    17:00 +14°C° 0 mm 3 mps 753 mmHg 94%
    18:00 +14°C° 0 mm 3 mps 753 mmHg 95%
    19:00 +14°C° 0 mm 3 mps 753 mmHg 95%
    20:00 +13°C° 0 mm 3 mps 753 mmHg 95%
    21:00 +13°C° 0 mm 3 mps 753 mmHg 95%
    22:00 +13°C° 0 mm 3 mps 753 mmHg 95%
    23:00 +13°C° 0 mm 3 mps 753 mmHg 96%

    25 October, Wednesday

    Time Temperature Precipitation Wind Pressure Humidity
    00:00 +13°C° 0 mm 3 mps 753 mmHg 96%
    01:00 +13°C° 0 mm 4 mps 753 mmHg 96%
    02:00 +13°C° 0 mm 4 mps 753 mmHg 95%
    03:00 +13°C° 0 mm 4 mps 752 mmHg 95%
    04:00 +13°C° 0 mm 4 mps 752 mmHg 95%
    05:00 +13°C° 0 mm 4 mps 753 mmHg 95%
    06:00 +12°C° 0 mm 4 mps 753 mmHg 95%
    07:00 +13°C° 0 mm 4 mps 753 mmHg 92%
    08:00 +14°C° 0 mm 4 mps 753 mmHg 89%
    09:00 +15°C° 0 mm 4 mps 753 mmHg 85%
    10:00 +15°C° 0 mm 4 mps 753 mmHg 80%
    11:00 +17°C° 0 mm 4 mps 753 mmHg 75%
    12:00 +18°C° 0 mm 4 mps 753 mmHg 71%
    13:00 +18°C° 0 mm 3 mps 753 mmHg 72%
    14:00 +18°C° 0 mm 3 mps 753 mmHg 73%
    15:00 +18°C° 0 mm 2 mps 753 mmHg 75%
    16:00 +16°C° 0 mm 2 mps 754 mmHg 80%
    17:00 +15°C° 0 mm 2 mps 754 mmHg 85%
    18:00 +13°C° 0 mm 1 mps 754 mmHg 90%
    19:00 +13°C° 0 mm 1 mps 754 mmHg 91%
    20:00 +13°C° 0 mm 1 mps 755 mmHg 92%
    21:00 +12°C° 0 mm 1 mps 755 mmHg 93%
    22:00 +12°C° 0 mm 1 mps 755 mmHg 93%
    23:00 +12°C° 0 mm 1 mps 755 mmHg 93%

    26 October, Thursday

    Time Temperature Precipitation Wind Pressure Humidity
    00:00 +11°C° 0 mm 1 mps 755 mmHg 93%
    01:00 +11°C° 0 mm 1 mps 755 mmHg 93%
    02:00 +10°C° 0 mm 2 mps 755 mmHg 93%
    03:00 +10°C° 0 mm 2 mps 755 mmHg 93%
    04:00 +10°C° 0 mm 2 mps 755 mmHg 93%
    05:00 +11°C° 0 mm 1 mps 755 mmHg 93%
    06:00 +11°C° 0 mm 1 mps 755 mmHg 93%
    07:00 +12°C° 0 mm 2 mps 755 mmHg 90%
    08:00 +13°C° 0 mm 2 mps 755 mmHg 87%
    09:00 +15°C° 0 mm 2 mps 755 mmHg 83%
    10:00 +16°C° 0 mm 2 mps 755 mmHg 78%
    11:00 +17°C° 0 mm 2 mps 755 mmHg 73%
    12:00 +19°C° 0 mm 2 mps 755 mmHg 68%
    13:00 +19°C° 0 mm 2 mps 754 mmHg 71%
    14:00 +19°C° 0 mm 2 mps 754 mmHg 73%
    15:00 +18°C° 0 mm 2 mps 754 mmHg 75%
    16:00 +17°C° 0 mm 2 mps 754 mmHg 80%
    17:00 +15°C° 0 mm 2 mps 754 mmHg 86%
    18:00 +14°C° 0 mm 2 mps 753 mmHg 91%
    19:00 +13°C° 0 mm 2 mps 753 mmHg 92%
    20:00 +13°C° 0 mm 2 mps 753 mmHg 93%
    21:00 +13°C° 0 mm 2 mps 753 mmHg 93%
    22:00 +13°C° 0 mm 2 mps 753 mmHg 93%
    23:00 +11°C° 0 mm 3 mps 753 mmHg 93%

    27 October, Friday

    Time Temperature Precipitation Wind Pressure Humidity
    00:00 +11°C° 0 mm 3 mps 753 mmHg 92%
    01:00 +11°C° 0 mm 3 mps 753 mmHg 91%
    02:00 +11°C° 0 mm 3 mps 752 mmHg 89%
    03:00 +11°C° 0 mm 3 mps 752 mmHg 88%
    04:00 +11°C° 0 mm 3 mps 752 mmHg 90%
    05:00 +10°C° 0 mm 3 mps 752 mmHg 92%
    06:00 +10°C° 0 mm 3 mps 752 mmHg 94%
    07:00 +11°C° 0 mm 3 mps 752 mmHg 91%
    08:00 +12°C° 0 mm 3 mps 752 mmHg 88%
    09:00 +13°C° 0 mm 3 mps 752 mmHg 86%
    10:00 +14°C° 0 mm 4 mps 752 mmHg 85%
    11:00 +14°C° 0 mm 4 mps 752 mmHg 84%
    12:00 +15°C° 0 mm 4 mps 752 mmHg 83%
    13:00 +14°C° 0.1 mm 4 mps 752 mmHg 84%
    14:00 +14°C° 0.1 mm 4 mps 752 mmHg 86%
    15:00 +14°C° 0.1 mm 4 mps 752 mmHg 87%
    16:00 +13°C° 0.1 mm 3 mps 753 mmHg 89%
    17:00 +12°C° 0.1 mm 3 mps 753 mmHg 91%
    18:00 +12°C° 0.1 mm 3 mps 753 mmHg 93%
    19:00 +11°C° 0 mm 3 mps 753 mmHg 94%
    20:00 +10°C° 0 mm 2 mps 753 mmHg 95%
    21:00 +10°C° 0 mm 2 mps 753 mmHg 95%
    22:00 +10°C° 0 mm 2 mps 753 mmHg 96%
    23:00 +10°C° 0 mm 2 mps 753 mmHg 96%
    Show more